Date,TemperatureHighF,TemperatureAvgF,TemperatureLowF,DewpointHighF,DewpointAvgF,DewpointLowF,HumidityHigh,HumidityAvg,HumidityLow,PressureMaxIn,PressureMinIn,WindSpeedMaxMPH,WindSpeedAvgMPH,GustSpeedMaxMPH,PrecipitationSumIn
2013-1-1,76,72,71,64,60,59,68,66,66,30.30,30.30,13,13,13,0.00
2013-1-2,75,71,68,68,67,59,95,87,66,30.30,30.01,13,3,13,0.00
2013-1-3,84,73,66,70,68,65,99,86,58,30.14,30.03,17,4,17,0.08
2013-1-4,88,72,63,73,68,58,99,89,56,30.20,30.11,11,3,11,0.00
2013-1-5,73,72,64,70,69,64,99,91,89,30.22,30.18,5,2,5,0.13
2013-1-6,83,73,64,73,70,63,99,90,70,30.20,30.06,17,5,17,0.00
2013-1-7,77,70,66,72,69,66,99,94,75,30.17,30.07,14,4,14,0.20
2013-1-8,84,77,71,74,72,70,99,87,74,30.20,30.07,16,8,16,0.17
2013-1-9,82,78,75,73,72,70,91,83,75,30.27,30.16,21,11,21,0.00
2013-1-11,77,77,77,72,72,72,83,83,83,30.23,30.23,5,5,11,0.00
2013-1-12,81,76,72,70,67,64,79,75,69,30.23,30.09,16,7,16,0.00
2013-1-13,82,76,73,69,66,64,84,74,62,30.13,30.08,20,9,20,0.00
2013-1-14,74,74,74,66,66,66,74,74,74,30.12,30.12,5,5,5,0.00
2013-1-15,74,74,74,66,66,66,74,74,74,30.12,30.12,5,5,5,0.00
2013-1-16,82,77,69,71,69,66,98,77,65,30.12,30.00,16,8,16,0.16
2013-1-17,82,71,60,74,67,54,99,90,70,30.09,29.97,23,5,23,0.35
2013-1-18,72,63,52,62,54,30,86,72,56,30.23,30.08,17,9,17,0.00
2013-1-19,73,68,64,70,65,58,99,89,66,30.22,30.09,14,4,14,0.33
2013-1-20,84,70,62,71,67,62,99,90,60,30.15,30.01,15,4,15,0.22
2013-1-21,80,71,64,73,68,64,99,91,73,30.07,29.95,14,4,14,0.06
2013-1-22,75,68,62,65,62,60,99,81,63,30.12,30.00,17,7,17,0.00
2013-1-30,75,75,75,61,61,61,63,63,63,30.10,30.10,6,6,6,0.00
2013-1-31,75,62,58,71,46,40,99,57,48,30.18,30.10,13,7,13,0.00
2013-2-1,74,66,52,55,49,38,71,56,51,30.27,30.16,16,10,16,0.00
2013-2-2,75,70,55,55,54,50,97,59,44,30.26,30.12,16,7,16,0.00
2013-2-3,75,57,50,69,50,39,98,81,28,30.12,30.07,12,2,4,0.00
2013-2-4,53,52,48,49,48,45,93,87,83,30.11,30.09,7,0,7,0.00
2013-2-27,69,69,69,66,66,66,89,89,89,30.09,30.09,6,6,0,0.00
2013-3-2,69,64,63,66,46,41,89,53,44,30.09,29.95,17,9,0,0.00
2013-3-3,63,63,63,59,59,59,87,87,87,29.97,29.97,1,1,17,0.00
2013-3-4,63,63,63,41,41,41,44,44,44,29.96,29.95,2,2,2,0.00
2013-3-5,63,63,63,41,41,41,44,44,44,29.96,29.96,2,2,2,0.00
2013-3-6,63,63,63,41,41,41,44,44,44,29.96,29.96,2,2,2,0.00
2013-3-7,63,63,63,41,41,41,44,44,44,29.96,29.96,2,2,2,0.00
2013-3-8,63,63,63,41,41,41,44,44,44,29.96,29.96,2,2,2,0.00
2013-3-9,63,63,63,41,41,41,44,44,44,29.96,29.96,2,2,2,0.00
2013-3-10,63,63,63,41,41,41,44,44,44,29.96,29.96,2,2,2,0.00
2013-3-11,63,63,63,41,41,41,44,44,44,29.96,29.96,2,2,2,0.00
2013-3-12,63,63,63,41,41,41,44,44,44,29.96,29.96,2,2,2,0.00
2013-3-13,63,63,63,41,41,41,44,44,44,29.96,29.96,2,2,2,0.00
2013-3-14,63,63,63,41,41,41,44,44,44,29.96,29.96,2,2,2,0.00